Iridium 91 - Orbit

View from above orbital plane
View from above orbital plane
View from above satellite
View from above satellite

Ground track
Ground track

The orbit data is extracted from the following two-line orbital elements,

1 27372U 02005A   13169.48981095  .00000055  00000-0  12733-4 0  8867
2 27372 086.3989 177.7226 0002116 035.1313 118.1697 14.34214656602405
Epoch (UTC): 18 June 2013 11:45:19
Eccentricity: 0.0002116
inclination: 86.3989°
perigee height: 776 km
apogee height: 779 km
right ascension of ascending node: 177.7226°
argument of perigee: 35.1313°
revolutions per day: 14.34214656
mean anomaly at epoch: 118.1697°
orbit number at epoch: 60240

The dashed part of the orbit path shows where the satellite is in the earth's shadow,  

Developed and maintained by Chris Peat, Heavens-Above GmbH. Please read the updated FAQ before sending e-mail. Imprint. DLR